User: anonymous   Login
Location: �chenoz-la-M�line
(47.6009°N, 6.1354°E)
Time: 01:54:11
(UTC+00:00)
Language:

MOS 1 Rocket - Orbit

View from above orbital plane
View from above orbital plane
View from above satellite
View from above satellite

Ground track
Ground track

The orbit data is extracted from the following two-line orbital elements,

1 17528U 87018B   21107.50568387  .00000112  00000-0  34105-4 0  9991
2 17528  97.4065 286.7023 0150444 228.6798 130.1372 14.51044751782314
Epoch (UTC): 17 April 2021 12:08:11
Eccentricity: 0.0150444
inclination: 97.4065°
perigee height: 615 km
apogee height: 829 km
right ascension of ascending node: 286.7023°
argument of perigee: 228.6798°
revolutions per day: 14.51044751
mean anomaly at epoch: 130.1372°
orbit number at epoch: 78231

The dashed part of the orbit path shows where the satellite is in the earth's shadow,  

DLR